Weather History for KGAG - January, 2013

Change the Weather History Date:

Tuesday, January 1, 2013

  Actual Average Record
Temperature  
Mean Temperature 22 °F -  
Max Temperature 27 °F 42 °F 73 °F (2000)
Min Temperature 16 °F 17 °F -7 °F (1979)
Degree Days  
Heating Degree Days 43    
Moisture  
Dew Point 17 °F    
Average Humidity 82    
Maximum Humidity 96    
Minimum Humidity 72    
Precipitation  
Precipitation 0.00 in - - ()
Sea Level Pressure  
Sea Level Pressure 30.27 in    
Wind  
Wind Speed 10 mph (NNW)    
Max Wind Speed 15 mph    
Max Gust Speed -    
Visibility 8 miles    
Events      
Averages and records for this station are not official NWS values.
T = Trace of Precipitation, MM = Missing Value Source: NWS Daily Summary

Daily Weather History Graph

Daily Weather History Graph

Search for Another Location

Airport or City:

Trip Planner

Search our weather history database for the weather conditions in past years. The results will help you decide how hot, cold, wet, or windy it might be!

Date:

Astronomy

Jan. 01, 2013 Rise Set
Actual Time 7:50 AM CST 5:35 PM CST
Civil Twilight 7:22 AM CST 6:03 PM CST
Nautical Twilight 6:49 AM CST 6:36 PM CST
Astronomical Twilight 6:18 AM CST 7:07 PM CST
Moon 9:59 PM CST 10:11 AM CST
Length of Visible Light 10h 41m
Length of Day
9h 44m
Waning Gibbous, 83% of the Moon is Illuminated
Jan 1
Waning Gibbous
Jan 4
Last Quarter
Jan 11
New
Jan 18
First Quarter
Jan 26
Full

Hourly Weather History & Observations

Time (CST) Temp. Windchill Dew Point Humidity Pressure Visibility Wind Dir Wind Speed Gust Speed Precip Events Conditions
12:53 AM 21.0 °F 7.6 °F 18.0 °F 88% 30.16 in 9.0 mi NNW 15.0 mph - N/A   Overcast
1:17 AM 21.2 °F 8.9 °F 17.6 °F 86% 30.12 in 8.0 mi NW 12.7 mph - N/A   Overcast
1:53 AM 19.9 °F 6.7 °F 16.0 °F 85% 30.17 in 8.0 mi NNW 13.8 mph - N/A   Overcast
2:53 AM 19.9 °F 8.6 °F 16.0 °F 85% 30.18 in 8.0 mi NNW 10.4 mph - N/A   Overcast
3:53 AM 19.9 °F 6.7 °F 16.0 °F 85% 30.21 in 8.0 mi NNW 13.8 mph - N/A   Overcast
4:53 AM 19.0 °F 6.8 °F 15.1 °F 85% 30.23 in 8.0 mi NNW 11.5 mph - N/A   Overcast
5:53 AM 19.0 °F 10.0 °F 15.1 °F 85% 30.24 in 8.0 mi NW 6.9 mph - N/A   Overcast
6:53 AM 19.9 °F 9.3 °F 16.0 °F 85% 30.27 in 8.0 mi North 9.2 mph - N/A   Overcast
7:53 AM 19.9 °F 10.1 °F 16.0 °F 85% 30.29 in 8.0 mi NNW 8.1 mph - N/A   Overcast
8:53 AM 19.9 °F 8.6 °F 16.0 °F 85% 30.31 in 6.0 mi NNW 10.4 mph - N/A   Overcast
9:04 AM 19.4 °F 8.6 °F 15.8 °F 86% 30.24 in 6.0 mi NNW 9.2 mph - N/A   Overcast
9:53 AM 21.0 °F 10.6 °F 17.1 °F 85% 30.33 in 7.0 mi NNW 9.2 mph - N/A   Overcast
10:07 AM 21.2 °F 10.9 °F 17.6 °F 86% 30.26 in 7.0 mi NW 9.2 mph - N/A   Overcast
10:17 AM 21.2 °F 10.9 °F 17.6 °F 86% 30.27 in 7.0 mi NNW 9.2 mph - N/A   Overcast
10:53 AM 21.9 °F 11.7 °F 17.1 °F 82% 30.35 in 6.0 mi NNW 9.2 mph - N/A   Haze
11:53 AM 23.0 °F 13.1 °F 18.0 °F 81% 30.35 in 7.0 mi North 9.2 mph - N/A   Overcast
12:53 PM 24.1 °F 13.7 °F 18.0 °F 77% 30.33 in 8.0 mi North 10.4 mph - N/A   Overcast
1:39 PM 24.8 °F 14.6 °F 17.6 °F 74% 30.24 in 8.0 mi NNW 10.4 mph - N/A   Overcast
1:53 PM 25.0 °F 15.5 °F 18.0 °F 75% 30.32 in 8.0 mi NNW 9.2 mph - N/A   Overcast
2:14 PM 24.8 °F 14.6 °F 17.6 °F 74% 30.24 in 9.0 mi NNW 10.4 mph - N/A   Overcast
2:50 PM 26.6 °F 16.2 °F 19.4 °F 74% 30.23 in 9.0 mi NNW 11.5 mph - N/A   Overcast
2:53 PM 27.0 °F 17.3 °F 19.0 °F 72% 30.30 in 9.0 mi NNW 10.4 mph - N/A   Overcast
3:20 PM 26.6 °F 17.5 °F 19.4 °F 74% 30.24 in 9.0 mi North 9.2 mph - N/A   Mostly Cloudy
3:53 PM 27.0 °F 19.5 °F 19.0 °F 72% 30.30 in 9.0 mi NNW 6.9 mph - N/A   Mostly Cloudy
4:53 PM 27.0 °F 19.5 °F 19.0 °F 72% 30.30 in 10.0 mi NNW 6.9 mph - N/A   Mostly Cloudy
5:53 PM 25.0 °F 18.1 °F 19.0 °F 78% 30.32 in 10.0 mi NNW 5.8 mph - N/A   Overcast
6:53 PM 24.1 °F 17.0 °F 18.0 °F 77% 30.33 in 10.0 mi NNW 5.8 mph - N/A   Overcast
7:53 PM 23.0 °F 17.0 °F 19.0 °F 85% 30.34 in 9.0 mi North 4.6 mph - N/A   Overcast
8:53 PM 21.0 °F 16.2 °F 18.0 °F 88% 30.34 in 8.0 mi West 3.5 mph - N/A   Mostly Cloudy
9:08 PM 19.4 °F 12.8 °F 17.6 °F 93% 30.25 in 7.0 mi West 4.6 mph - N/A   Scattered Clouds
9:53 PM 17.1 °F 8.7 °F 16.0 °F 96% 30.34 in 7.0 mi WSW 5.8 mph - N/A   Clear
10:53 PM 17.1 °F 8.7 °F 15.1 °F 92% 30.35 in 8.0 mi WSW 5.8 mph - N/A   Clear
11:53 PM 16.0 °F 10.4 °F 12.9 °F 88% 30.32 in 7.0 mi WSW 3.5 mph - N/A   Clear